7 * 24
多渠道服务支持
GOES 14是美国发射的新一代静止轨道环境卫星,隶属于GOES-N系列气象卫星计划,于北京时间2009年6月27日发射升空。该卫星主要承担北美及周边海域的气象观测任务,可实时监测大气变化、风暴系统演化,为气象预报、灾害预警提供高精度数据支撑,同时作为在轨备份卫星,它保障了GOES系统的持续稳定运行,提升了美国气象监测网络的可靠性与应急响应能力。
美国
(US)
| 数据来源 | 国际轨道数据 |
| 星历时间: | 2026-03-13T20:48:39+0800 9小时前 查看轨道信息 |
| 半长轴: | 42212.115km |
| 偏心率: | 0.0001689 |
| 轨道倾角: | 1.441° |
| 近地点辐角 | 273.661° |
| 升交点赤经 | 84.280° |
| 平近点角 | 201.634° |
| 近地点: | 35826.848km |
| 远地点: | 35841.108km |
| 周期: | 1438.518分钟 |
| 每日圈数: | 1.00103 |